Satellite-Ground Cal/Val Site Overpasses Predictions

Prediction of Satellite NPP Overpassing Cal/Val Site: Antarctic Dome C

Ground Cal/Val Site Location: Latitude: -75.10, Longitude: 123.35; Satellite-Ground Site NADIR distance within 100 km.

Table of predicted overpasses for the next 14.0 days since TLE Epoch: 4/22/2023
Interval Starting Time Ending Time Minimum Distance Time Minimum Distance (km)
1 04/22/2023 07:40:03 04/22/2023 07:40:30 04/22/2023 07:40:16 37.62
2 04/23/2023 07:21:16 04/23/2023 07:21:36 04/23/2023 07:21:26 72.52
3 04/25/2023 15:03:28 04/25/2023 15:03:52 04/25/2023 15:03:40 53.92
4 04/26/2023 14:44:37 04/26/2023 14:45:01 04/26/2023 14:44:49 55.20
5 04/27/2023 07:46:17 04/27/2023 07:46:37 04/27/2023 07:46:27 72.70
6 04/28/2023 07:27:23 04/28/2023 07:27:51 04/28/2023 07:27:37 35.32
7 04/30/2023 15:09:44 04/30/2023 15:09:55 04/30/2023 15:09:50 91.41
8 05/01/2023 14:50:45 05/01/2023 14:51:13 05/01/2023 14:50:59 19.77
